Regional Weather Roundup
Issued by NWS

Home | Current Version | Previous Version | Graphics & Text | Print | Product List | Glossary On
Versions: 1 2 3 4 5 6 7 8 9 10 11 12 13 14 15 16 17 18 19 20 21 22 23 24 25 26 27 28 29 30 31 32 33 34 35 36 37 38 39 40 41 42 43 44 45 46 47 48 49 50
000
ASUS43 KDMX 191406
RWRIA

WEATHER ROUNDUP FOR IOWA
NATIONAL WEATHER SERVICE DES MOINES IA
900 AM CDT THU OCT 19 2017

NOTE: "FAIR" INDICATES FEW OR NO CLOUDS BELOW 12,000 FEET WITH NO
SIGNIFICANT WEATHER AND/OR OBSTRUCTIONS TO VISIBILITY.

* - THESE STATIONS ARE NOT NWS STATIONS...THUS NOT UNDER NWS
QUALITY CONTROL.  THEY ALSO DO NOT REPORT WEATHER SUCH
AS PRECIPITATION OR FOG.

IAZ001>003-012>014-020>022-031>034-043>046-191500-
   NORTHWEST IOWA

CITY           SKY/WX    TMP DP  RH WIND       PRES   REMARKS
CARROLL *      SUNNY     55  55 100 S5        30.11R
CHEROKEE *     SUNNY     40  40 100 CALM      30.08S
DENISON *      SUNNY     52  36  54 SE9       30.10R
LE MARS *      SUNNY     46  37  71 CALM      30.06S
ORANGE CITY *  SUNNY     50  36  57 SE3       30.06S
SHELDON *      MIX PCPN  43  36  75 SE5       30.06R
SIOUX CITY     SUNNY     44  40  85 E7        30.06S
SPENCER        SUNNY     40  38  93 CALM      30.09R
STORM LAKE *   SUNNY     50  34  53 SE13      30.08S
$$

IAZ055>058-069>071-079>083-090>094-191500-
   SOUTHWEST IOWA

CITY           SKY/WX    TMP DP  RH WIND       PRES   REMARKS
ATLANTIC *     SUNNY     50  43  76 CALM      30.10R
AUDUBON *      SUNNY     52  43  71 CALM      30.11R
CLARINDA *     SUNNY     46  46 100 NE5       30.12R
COUNCIL BLFS * SUNNY     54  50  87 SE7       30.08R
CRESTON *      SUNNY     54  48  82 E12       30.13R
HARLAN  *      SUNNY     52  41  66 CALM      30.13R
LAMONI         SUNNY     51  49  92 E3        30.11R
RED OAK *      SUNNY     52  48  87 CALM      30.10R
SHENANDOAH *   SUNNY     48  48 100 NE5       30.10R
$$

IAZ047>049-059>061-072>074-084-191500-
   CENTRAL IOWA

CITY           SKY/WX    TMP DP  RH WIND       PRES   REMARKS
AMES           CLOUDY    48  44  86 SE5       30.12R
ANKENY *       SUNNY     52  39  62 SE6       30.14R
BOONE *        CLOUDY    50  39  66 SE8       30.11S
CHARITON *     SUNNY     54  45  71 E8        30.13R
DES MOINES     MOSUNNY   55  36  48 E12       30.12R
KNOXVILLE *    SUNNY     54  39  58 SE8       30.12R
MARSHALLTOWN     N/A     48  41  76 E5        30.13R
NEWTON *       SUNNY     52  37  58 E8        30.13R
PELLA *        SUNNY     55  37  51 SE7       30.14R
PERRY *          N/A     48  45  87 CALM      30.13R
$$

IAZ004>006-015-016-023>025-035-036-191500-
   NORTH CENTRAL IOWA

CITY           SKY/WX    TMP DP  RH WIND       PRES   REMARKS
ALGONA *       CLOUDY    48  34  57 S8G15     30.10R
CLARION *      CLOUDY    50  36  57 SE10      30.12R
ESTHERVILLE    CLOUDY    44  36  73 S8        30.09R
FORT DODGE *   CLOUDY    46  41  82 E5        30.12R
MASON CITY     CLOUDY    45  38  76 S6        30.14R
FOREST CITY *    N/A     43  37  81 CALM      30.12R
WEBSTER CITY * CLOUDY    45  39  81 E5        30.10R
IOWA FALLS *     N/A     47  38  72 E3        30.14R
$$

IAZ007>011-017>019-026>030-037>042-050>054-066-191500-
   NORTHEAST IOWA

CITY           SKY/WX    TMP DP  RH WIND       PRES   REMARKS
CEDAR RAPIDS   SUNNY     52  41  66 SE6       30.14R
CHARLES CITY * CLOUDY    46  36  66 S5        30.14R
CLINTON *      MOSUNNY   51  47  86 CALM      30.17R
DECORAH *      SUNNY     48  34  57 CALM      30.13R
DUBUQUE        CLOUDY    50  40  68 CALM      30.15R
MONTICELLO *   SUNNY     45  45 100 CALM      30.15R
OELWEIN *      CLOUDY    46  39  76 CALM      30.15R
WATERLOO       CLOUDY    44  39  82 CALM      30.14R
$$

IAZ064-065-067-068-078-191500-
   EAST CENTRAL IOWA

CITY           SKY/WX    TMP DP  RH WIND       PRES   REMARKS
DAVENPORT      SUNNY     54  47  77 NE5       30.18R
IOWA CITY        N/A     54  44  69 CALM      30.16R
MUSCATINE *    SUNNY     52  48  87 CALM      30.16R
QUAD CITIES    SUNNY     52  47  83 CALM      30.15R
$$

IAZ062-063-075>077-085>089-095>099-191500-
   SOUTHEAST IOWA

CITY           SKY/WX    TMP DP  RH WIND       PRES   REMARKS
BURLINGTON     SUNNY     56  50  80 CALM      30.14R
FAIRFIELD *    SUNNY     55  45  67 E12       30.14R
FORT MADISON * SUNNY     55  52  88 CALM      30.15R
KEOKUK *       SUNNY     55  50  82 CALM      30.14R
OSKALOOSA *      N/A     55  39  56 E12       30.14R
OTTUMWA        SUNNY     53  43  68 E9        30.14R
WASHINGTON *   SUNNY     55  46  71 E7        30.15R
$$

ABBREVIATIONS USED IN REMARKS
   TC - TEMPERATURES IN CELSIUS
  WCI - WIND CHILL INDEX
   HX - HEAT INDEX
  VSB - VISIBILITY
$$




USA.gov is the U.S. government's official web portal to all federal, state and local government web resources and services.